Weather History for Portage Glacier, AK

Change the Weather History Date:

Monday, January 27, 2014

  Actual Average Record
Temperature  
Mean Temperature 48 °F -  
Max Temperature 54 °F - - ()
Min Temperature 41 °F - - ()
Degree Days  
Heating Degree Days 18    
Moisture  
Dew Point 38 °F    
Average Humidity 75    
Maximum Humidity 93    
Minimum Humidity 41    
Precipitation  
Precipitation 1.83 in - - ()
Sea Level Pressure  
Sea Level Pressure 29.84 in    
Wind  
Wind Speed 15 mph (ESE)    
Max Wind Speed 31 mph    
Max Gust Speed 61 mph    
Visibility 6 miles    
Events Rain    
T = Trace of Precipitation, MM = Missing Value Source: NWS Daily Summary

Daily Weather History Graph

Daily Weather History Graph

Search for Another Location

Airport:

Trip Planner

Search our weather history database for the weather conditions in past years. The results will help you decide how hot, cold, wet, or windy it might be!

Date:

Astronomy

Jan. 27, 2014 Rise Set
Actual Time 9:24 AM AKST 4:52 PM AKST
Civil Twilight 8:34 AM AKST 5:42 PM AKST
Nautical Twilight 7:41 AM AKST 6:35 PM AKST
Astronomical Twilight 6:51 AM AKST 7:26 PM AKST
Moon 6:31 AM AKST (1/27) 1:33 PM AKST (1/27)
Length of Visible Light 9h 08m
Length of Day
7h 27m
Waning Crescent, 13% of the Moon is Illuminated
Jan 27
Waning Crescent
Jan 30
New
Feb 6
First Quarter
Feb 14
Full
Feb 22
Last Quarter

Hourly Weather History & Observations

Time (AKST) Temp. Windchill Dew Point Humidity Pressure Visibility Wind Dir Wind Speed Gust Speed Precip Events Conditions
12:53 AM 46.0 °F 41.0 °F 37.9 °F 73% 29.90 in 10.0 mi East 10.4 mph 17.3 mph N/A   Overcast
1:53 AM 41.0 °F - 39.0 °F 93% 29.88 in 10.0 mi Calm Calm - N/A   Overcast
2:53 AM 46.9 °F - 37.0 °F 68% 29.84 in 10.0 mi East 11.5 mph 19.6 mph N/A   Overcast
3:53 AM 48.0 °F - 36.0 °F 63% 29.80 in 10.0 mi East 11.5 mph - N/A   Overcast
4:53 AM 52.0 °F - 36.0 °F 54% 29.78 in 10.0 mi SE 12.7 mph 21.9 mph N/A   Clear
5:53 AM 50.0 °F - 35.1 °F 57% 29.76 in 10.0 mi SE 13.8 mph 28.8 mph N/A   Clear
6:53 AM 51.1 °F - 34.0 °F 52% 29.75 in 10.0 mi SE 12.7 mph 23.0 mph N/A   Partly Cloudy
7:53 AM 51.1 °F - 34.0 °F 52% 29.75 in 10.0 mi SSE 11.5 mph 21.9 mph N/A   Clear
8:53 AM 50.0 °F - 34.0 °F 54% 29.77 in 10.0 mi SE 9.2 mph 23.0 mph N/A   Overcast
9:53 AM 54.0 °F - 30.9 °F 41% 29.77 in 10.0 mi ESE 16.1 mph 27.6 mph N/A   Overcast
10:53 AM 53.1 °F - 32.0 °F 45% 29.79 in 10.0 mi North - - N/A   Overcast
11:53 AM 52.0 °F - 32.0 °F 47% 29.75 in 10.0 mi ESE 26.5 mph 41.4 mph N/A   Partly Cloudy
12:53 PM 48.9 °F - 35.1 °F 59% 29.75 in 10.0 mi SE 28.8 mph 55.2 mph 0.00 in Rain Light Rain
1:21 PM 45.0 °F 35.2 °F 37.9 °F 76% 29.78 in 1.8 mi ESE 29.9 mph 44.9 mph 0.05 in Rain Heavy Rain
1:35 PM 46.0 °F 36.5 °F 39.0 °F 76% 29.80 in 2.0 mi East 31.1 mph 55.2 mph 0.09 in Rain Rain
1:45 PM 45.0 °F 35.6 °F 39.9 °F 82% 29.81 in 1.5 mi ESE 27.6 mph 50.6 mph 0.13 in Rain Heavy Rain
1:53 PM 46.0 °F 37.2 °F 39.9 °F 79% 29.81 in 1.2 mi SE 26.5 mph 61.0 mph 0.17 in Rain Heavy Rain
2:53 PM 45.0 °F 36.0 °F 39.0 °F 80% 29.85 in 1.5 mi East 25.3 mph 48.3 mph 0.27 in Rain Heavy Rain
3:01 PM 45.0 °F 37.1 °F 39.0 °F 80% 29.84 in 1.5 mi East 19.6 mph 54.1 mph 0.04 in Rain Rain
3:53 PM 44.1 °F 37.1 °F 39.9 °F 85% 29.87 in 1.5 mi ESE 15.0 mph 29.9 mph 0.28 in Rain Heavy Rain
4:20 PM 43.0 °F 35.1 °F 39.9 °F 89% 29.87 in 2.0 mi ESE 17.3 mph 29.9 mph 0.12 in Rain Rain
4:35 PM 43.0 °F 34.5 °F 39.9 °F 89% 29.87 in 3.0 mi ESE 19.6 mph 32.2 mph 0.16 in Rain Rain
4:44 PM 44.1 °F 35.7 °F 39.9 °F 85% 29.87 in 4.0 mi East 20.7 mph 36.8 mph 0.18 in Rain Rain
4:53 PM 43.0 °F 35.7 °F 39.9 °F 89% 29.87 in 4.0 mi ESE 15.0 mph 36.8 mph 0.21 in Rain Rain
5:24 PM 44.1 °F 37.1 °F 39.9 °F 85% 29.86 in 4.0 mi ESE 15.0 mph 27.6 mph 0.08 in Rain Rain
5:53 PM 44.1 °F 37.4 °F 41.0 °F 89% 29.87 in 4.0 mi SE 13.8 mph 31.1 mph 0.15 in Rain Rain
6:05 PM 44.1 °F 36.8 °F 41.0 °F 89% 29.86 in 3.0 mi SE 16.1 mph 28.8 mph 0.04 in Rain Rain
6:12 PM 44.1 °F 36.8 °F 39.9 °F 85% 29.87 in 4.0 mi ESE 16.1 mph 36.8 mph 0.06 in Rain Rain
6:53 PM 45.0 °F 37.6 °F 39.9 °F 82% 29.88 in 4.0 mi ESE 17.3 mph 27.6 mph 0.15 in Rain Rain
7:07 PM 44.1 °F 36.8 °F 39.9 °F 85% 29.88 in 4.0 mi SE 16.1 mph 32.2 mph 0.03 in Rain Rain
7:26 PM 45.0 °F 38.9 °F 39.0 °F 80% 29.88 in 4.0 mi SE 12.7 mph 35.7 mph 0.07 in Rain Rain
7:53 PM 45.0 °F 38.5 °F 39.9 °F 82% 29.88 in 5.0 mi ESE 13.8 mph 31.1 mph 0.12 in Rain Rain
8:05 PM 45.0 °F 37.9 °F 39.9 °F 82% 29.88 in 4.0 mi ESE 16.1 mph 32.2 mph 0.04 in Rain Rain
8:12 PM 44.1 °F 37.4 °F 39.9 °F 85% 29.88 in 4.0 mi SE 13.8 mph 29.9 mph 0.06 in Rain Rain
8:53 PM 44.1 °F 38.1 °F 39.9 °F 85% 29.88 in 4.0 mi ESE 11.5 mph 29.9 mph 0.17 in Rain Rain
9:53 PM 45.0 °F 38.2 °F 39.9 °F 82% 29.89 in 4.0 mi SE 15.0 mph 27.6 mph 0.14 in Rain Rain
10:53 PM 43.0 °F 35.7 °F 39.9 °F 89% 29.91 in 5.0 mi SE 15.0 mph 27.6 mph 0.09 in Rain Rain
11:53 PM 43.0 °F 37.7 °F 39.0 °F 86% 29.92 in 4.0 mi SE 9.2 mph 23.0 mph 0.08 in Rain Rain